Bangor, ME

1:11 AM EDT on October 16, 2019 (GMT -0400)
Bangor International

Weather History for KBGR - August, 2019

Change the Weather History Date:

Thursday, August 1, 2019

  Actual Average Record
Temperature  
Mean Temperature 71 °F 69 °F  
Max Temperature 83 °F 80 °F 91 °F (1975)
Min Temperature 58 °F 58 °F 47 °F (1998)
Degree Days  
Heating Degree Days 0 1  
Month to date heating degree days 0 1  
Since 1 June heating degree days 90 131  
Since 1 July heating degree days 0 24  
Cooling Degree Days 6 4  
Month to date cooling degree days 6 4  
Year to date cooling degree days 232 194  
Since 1 June cooling degree days 232 188  
Growing Degree Days 22 (Base 50)    
Moisture  
Dew Point 61 °F    
Average Humidity 70    
Maximum Humidity 100    
Minimum Humidity 39    
Precipitation  
Precipitation T in 0.11 in 1.79 in (1985)
Month to date precipitation T 0.11  
Year to date precipitation 28.67 23.38  
Snow  
Snow 0.00 in 0.00 in 0.00 in (2002)
Month to date snowfall 0.0 0.0  
Since 1 June snowfall 0.0 0.0  
Since 1 July snowfall 0.0 0.0  
Snow Depth 0.00 in    
Sea Level Pressure  
Sea Level Pressure 30.01 in    
Wind  
Wind Speed 6 mph (NW)    
Max Wind Speed 15 mph    
Max Gust Speed 20 mph    
Visibility 10 miles    
Events Fog , Rain    
T = Trace of Precipitation, MM = Missing Value Source: NWS Daily Summary

Daily Weather History Graph

Daily Weather History Graph

Search for Another Location

Airport or City:

Astronomy

Aug. 01, 2019 Rise Set
Actual Time 5:20 AM EDT 8:01 PM EDT
Civil Twilight 4:47 AM EDT 8:35 PM EDT
Nautical Twilight 4:04 AM EDT 9:17 PM EDT
Astronomical Twilight 3:15 AM EDT 10:05 PM EDT
Moon 5:40 AM EDT (8/1) 8:45 PM EDT (8/1)
Length of Visible Light 15h 47m
Length of Day
14h 40m
New Moon, 0% of the Moon is Illuminated
Aug 1
New Moon
Aug 7
First Quarter
Aug 15
Full
Aug 23
Last Quarter
Aug 30
New

Hourly Weather History & Observations

Time (EDT) Temp. Heat Index Dew Point Humidity Pressure Visibility Wind Dir Wind Speed Gust Speed Precip Events Conditions
12:53 AM 66.9 °F - 64.9 °F 93% 29.97 in 10.0 mi WNW 5.8 mph - 0.00 in Rain Light Rain
1:53 AM 66.0 °F - 64.9 °F 96% 29.96 in 10.0 mi Calm Calm - 0.00 in   Mostly Cloudy
2:53 AM 66.0 °F - 64.9 °F 96% 29.97 in 10.0 mi SW 3.5 mph - N/A   Scattered Clouds
3:53 AM 64.9 °F - 64.0 °F 97% 29.97 in 10.0 mi Calm Calm - N/A   Partly Cloudy
4:53 AM 66.0 °F - 64.9 °F 96% 29.97 in 10.0 mi WSW 4.6 mph - N/A   Overcast
5:53 AM 66.0 °F - 64.9 °F 96% 29.98 in 10.0 mi West 5.8 mph - N/A Fog Patches of Fog
6:53 AM 68.0 °F - 64.9 °F 90% 29.99 in 10.0 mi West 6.9 mph - N/A Fog Patches of Fog
7:53 AM 72.0 °F - 66.0 °F 81% 29.99 in 10.0 mi WNW 4.6 mph - N/A Fog Patches of Fog
8:53 AM 75.0 °F - 66.9 °F 76% 30.01 in 10.0 mi North 9.2 mph - N/A   Scattered Clouds
9:27 AM 75.0 °F - 66.9 °F 76% 30.03 in 10.0 mi NNW 10.4 mph - N/A   Mostly Cloudy
9:53 AM 75.0 °F - 66.0 °F 73% 30.02 in 10.0 mi NNE 9.2 mph - N/A   Mostly Cloudy
10:53 AM 77.0 °F - 64.9 °F 66% 30.03 in 10.0 mi North 11.5 mph 17.3 mph N/A   Scattered Clouds
11:53 AM 80.1 °F 81.9 °F 64.9 °F 60% 30.02 in 10.0 mi North 6.9 mph - N/A   Scattered Clouds
12:53 PM 80.1 °F 81.2 °F 62.1 °F 54% 30.03 in 10.0 mi NE 9.2 mph - N/A   Scattered Clouds
1:53 PM 81.0 °F 81.9 °F 62.1 °F 52% 30.01 in 10.0 mi North 10.4 mph - N/A   Partly Cloudy
2:53 PM 81.0 °F 81.7 °F 61.0 °F 50% 30.01 in 10.0 mi NNW 12.7 mph - N/A   Scattered Clouds
3:53 PM 81.0 °F 81.6 °F 60.1 °F 49% 30.01 in 10.0 mi NNW 9.2 mph - N/A   Scattered Clouds
4:53 PM 82.0 °F 81.7 °F 57.0 °F 42% 30.00 in 10.0 mi NNW 8.1 mph - N/A   Partly Cloudy
5:53 PM 81.0 °F 80.5 °F 54.0 °F 39% 30.00 in 10.0 mi North 9.2 mph - N/A   Partly Cloudy
6:53 PM 78.1 °F - 54.0 °F 43% 30.01 in 10.0 mi NNW 9.2 mph - N/A   Partly Cloudy
7:53 PM 73.9 °F - 55.0 °F 52% 30.03 in 10.0 mi NW 6.9 mph - N/A   Clear
8:53 PM 70.0 °F - 52.0 °F 53% 30.05 in 10.0 mi NW 8.1 mph - N/A   Clear
9:53 PM 69.1 °F - 51.1 °F 53% 30.06 in 10.0 mi NW 5.8 mph - N/A   Clear
10:53 PM 62.1 °F - 53.1 °F 72% 30.06 in 10.0 mi West 3.5 mph - N/A   Clear
11:53 PM 60.1 °F - 53.1 °F 78% 30.07 in 10.0 mi Calm Calm - N/A   Clear